Location: Juzet
(42.9779°N, 0.7597°E)
Time: 02:49:31
(UTC+00:00)

Meteor 1-5 Rocket - Pass Details

Date: 14 July 2020
Orbit: 790 x 915 km, 81.2° (Epoch: 04 August)

Event Time Altitude Azimuth Distance (km) Brightness Sun altitude
Exits shadow 01:55:46 37° 187° (S) 1,309 4.7 -20.4°
Maximum altitude 01:58:09 88° 97° (E) 879 4.2 -20.2°
Drops below altitude 10° 02:04:01 10° 10° (N) 2,569 7.8 -19.6°
Sets 02:06:31 0° 11° (N) 3,528 8.7 -19.4°
